Content
SEND FEEDBACK

Daily
Averages
Monthly
Summary
United States of America

AGANA, GUAM


Home > North America > United States > Guam
Elevation: 246 feet     Latitude: 13 29N     Longitude: 144 48E

WEATHER
 
SELECT A DAY
Number of Records: 209,044;   Date Range: 1/1/95 - 7/29/14
 
SHARE

PRINT THIS DATA

[ ← Previous Day ]
WEATHER ALMANAC - MARCH 21, 2014
[ Next Day → ]
[ °C ]   °F
Weather ElementAverageHighLow
Temperature81.4 °F86 °F (2:54 pm)77 °F (4:54 am)
Dewpoint72.2 °F73.9 °F (5:54 am)70 °F (9:54 am)
Humidity74 %87 % (5:54 am)61 % (2:54 pm)
Barometer29.81 in29.87 in (10:54 pm)29.76 in (2:54 pm)
Wind Speed11.1 mph17.3 mph (8:54 am)
Wind Gust24.2 mph (8:54 am)
Weather ElementAverage
Visibility10 mi
Wind DirectionENE (79.6 °)

Weather ElementTotal
Precipitation0.01 in
Cooling Degree Days16.5 (Base 65)
Growing Degree Days31.5 (Base 50)
Averaged from 23 records on March 21, 2014
WEATHER CONDITIONS BREAKOUT
WIND DIRECTION BREAKOUT
WEATHER BY HOUR - MARCH 21, 2014
[ °C ]   °F
Local TimeTemperatureDewpointHumidityBarometerVisibilityWind DirectionWind SpeedGust SpeedPrecipitationEventsConditions
1:54 AM79.0 °F72.0 °F79 %29.81 in10.0 miEast (90°)8.1 mphPartly Cloudy
2:54 AM79.0 °F72.0 °F79 %29.80 in10.0 miENE (60°)9.2 mphClear
3:54 AM78.1 °F73.0 °F84 %29.80 in10.0 miENE (60°)10.4 mph0.00 inRainLight Rain
4:54 AM77.0 °F72.0 °F84 %29.78 in10.0 miEast (80°)9.2 mph0.01 inScattered Clouds
5:54 AM78.1 °F73.9 °F87 %29.80 in10.0 miEast (80°)11.5 mphPartly Cloudy
6:54 AM79.0 °F72.0 °F79 %29.81 in10.0 miEast (80°)11.5 mphClear
7:54 AM80.1 °F72.0 °F76 %29.82 in10.0 miEast (80°)11.5 mphScattered Clouds
8:54 AM81.0 °F73.0 °F77 %29.84 in10.0 miEast (90°)17.3 mph24.2 mphPartly Cloudy
9:54 AM82.9 °F70.0 °F65 %29.83 in10.0 miEast (80°)15.0 mphMostly Cloudy
10:54 AM84.0 °F73.9 °F72 %29.82 in10.0 miEast (100°)12.7 mph24.2 mphMostly Cloudy
11:54 AM84.9 °F72.0 °F65 %29.79 in10.0 miEast (90°)17.3 mph23.0 mphClear
12:54 PM84.9 °F72.0 °F65 %29.77 in10.0 miENE (70°)16.1 mph20.7 mphClear
1:54 PM84.9 °F71.1 °F63 %29.77 in10.0 miEast (100°)13.8 mph19.6 mphPartly Cloudy
2:54 PM86.0 °F71.1 °F61 %29.76 in10.0 miEast (90°)12.7 mph17.3 mphPartly Cloudy
3:54 PM84.9 °F70.0 °F61 %29.77 in10.0 miEast (80°)12.7 mph19.6 mphPartly Cloudy
4:54 PM84.0 °F71.1 °F65 %29.78 in10.0 miENE (70°)12.7 mphScattered Clouds
5:54 PM82.0 °F72.0 °F71 %29.79 in10.0 miEast (80°)11.5 mphPartly Cloudy
6:54 PM82.0 °F72.0 °F71 %29.81 in10.0 miEast (80°)6.9 mph0.00 inRainLight Rain
7:54 PM80.1 °F72.0 °F76 %29.83 in10.0 miEast (90°)5.8 mph0.00 inScattered Clouds
8:54 PM80.1 °F73.0 °F79 %29.86 in10.0 miEast (80°)9.2 mphMostly Cloudy
9:54 PM81.0 °F73.9 °F79 %29.86 in10.0 miEast (80°)8.1 mphScattered Clouds
10:54 PM80.1 °F73.9 °F81 %29.87 in10.0 miEast (80°)5.8 mphOvercast
11:54 PM79.0 °F73.0 °F82 %29.86 in10.0 miNE (40°)5.8 mphOvercast
Hourly data recorded from PGUM, located miles away from Agana, Guam







STORIES FROM OUR PARTNERS